EW1145 Weather Reports


Display with metric or nautical units.
time (UTC)temp
F
wind
direction
speed
MPH
gust
MPH
rain 1hr
in
rain 24hr
in
rain mn
in
humidity
%
barometer
mb
20260902231554 61 192 0.0 6.0 0.00 0.26 0.26 85 1006.2
20260902230051 61 192 0.0 3.0 0.02 0.26 0.26 93 1006.1
20260902224549 59 192 1.0 4.0 0.02 0.26 0.26 94 1005.8
20260902223052 59 174 0.0 5.0 0.03 0.26 0.26 96 1005.7
20260902221556 59 205 0.0 6.0 0.03 0.26 0.26 96 1005.7
20260902220054 59 164 0.0 5.0 0.02 0.24 0.24 97 1005.4
20260902214547 58 200 1.0 11.0 0.02 0.24 0.24 97 1005.3
20260902213046 58 196 0.0 4.0 0.01 0.23 0.23 97 1005.3
20260902211557 57 192 0.0 7.0 0.02 0.23 0.23 97 1005.2
20260902210053 57 210 0.0 8.0 0.02 0.22 0.22 96 1005.1
20260902204547 57 217 0.0 8.0 0.03 0.22 0.22 96 1005.0
20260902203047 57 192 0.0 4.0 0.04 0.22 0.22 96 1005.0
20260902201558 57 188 0.0 9.0 0.03 0.21 0.21 96 1004.9
20260902200046 57 198 0.0 6.0 0.03 0.20 0.20 95 1004.9
20260902194542 57 194 0.0 4.0 0.06 0.19 0.19 95 1004.9
20260902193042 57 194 1.0 7.0 0.06 0.18 0.18 95 1004.9
20260902191541 57 113 0.0 4.0 0.07 0.18 0.18 95 1005.2
20260902190038 57 200 0.0 1.0 0.06 0.17 0.17 95 1005.5
20260902184537 57 200 0.0 3.0 0.04 0.13 0.13 94 1005.7
20260902183046 57 200 0.0 3.0 0.03 0.12 0.12 94 1005.7
20260902181535 57 200 0.0 5.0 0.03 0.11 0.11 93 1005.8
20260902180033 57 186 0.0 4.0 0.05 0.10 0.10 93 1005.9
20260902174531 57 187 0.0 4.0 0.06 0.09 0.09 93 1006.1
20260902173031 57 193 0.0 4.0 0.08 0.09 0.09 92 1006.1
20260902171530 58 184 0.0 1.0 0.07 0.07 0.07 93 1006.1
20260902170029 58 184 0.0 2.0 0.05 0.05 0.05 92 1006.1
20260902164527 58 184 0.0 0.0 0.03 0.03 0.03 90 1006.1
20260902163028 58 184 0.0 0.0 0.01 0.01 0.01 88 1006.1
20260902161527 58 184 0.0 0.0 0.00 0.00 0.00 88 1006.1
20260902160026 58 184 0.0 0.0 0.00 0.00 0.00 87 1006.1
20260902154532 58 184 0.0 0.0 0.00 0.00 0.00 86 1006.2
20260902153024 58 184 0.0 0.0 0.00 0.00 0.00 88 1006.3
20260902151522 58 184 0.0 0.0 0.00 0.00 0.00 89 1006.5
20260902150023 58 184 0.0 0.0 0.00 0.00 0.00 87 1006.7
20260902144520 57 184 0.0 0.0 0.00 0.00 0.00 88 1006.8
20260902143021 57 184 0.0 0.0 0.00 0.00 0.00 88 1006.8
20260902141524 57 184 0.0 0.0 0.00 0.00 0.00 88 1006.9
20260902140031 57 184 0.0 0.0 0.00 0.00 0.00 88 1007.0
20260902134515 57 184 0.0 0.0 0.00 0.00 0.00 88 1007.2
20260902133014 57 184 0.0 0.0 0.00 0.00 0.00 88 1007.3
20260902131511 57 184 0.0 0.0 0.00 0.00 0.00 88 1007.6
20260902130010 57 184 0.0 0.0 0.00 0.00 0.00 88 1007.9
20260902124515 57 184 0.0 0.0 0.00 0.00 0.00 88 1008.1
20260902123006 57 184 0.0 0.0 0.00 0.00 0.00 88 1008.2
20260902121505 57 184 0.0 0.0 0.00 0.00 0.00 88 1008.4
20260902120008 57 184 0.0 0.0 0.00 0.00 0.00 88 1008.6
20260902114602 57 184 0.0 0.0 0.00 0.00 0.00 88 1008.9
20260902113059 57 184 0.0 0.0 0.00 0.00 0.00 88 1009.0
20260902111559 57 184 0.0 0.0 0.00 0.00 0.00 87 1009.2
20260902110059 57 184 0.0 1.0 0.00 0.00 0.00 88 1009.2
20260902104558 57 184 0.0 0.0 0.00 0.00 0.00 89 1009.3
20260902103100 57 184 0.0 0.0 0.00 0.00 0.00 89 1009.4
20260902101559 57 184 0.0 0.0 0.00 0.00 0.00 89 1009.4
20260902100054 57 184 0.0 0.0 0.00 0.00 0.00 89 1009.4
20260902094552 57 184 0.0 0.0 0.00 0.00 0.00 89 1009.6
20260902093118 57 184 0.0 0.0 0.00 0.00 0.00 89 1009.7
20260902091554 57 184 0.0 0.0 0.00 0.00 0.00 89 1009.8
20260902090056 56 184 0.0 0.0 0.00 0.00 0.00 89 1010.0
20260902084554 56 184 0.0 0.0 0.00 0.00 0.00 88 1010.1
20260902083050 57 184 0.0 0.0 0.00 0.00 0.00 87 1010.1
20260902081550 58 184 0.0 0.0 0.00 0.00 0.00 87 1010.2
20260902080039 58 184 0.0 0.0 0.00 0.00 0.00 86 1010.3
20260902074536 59 184 0.0 1.0 0.00 0.00 0.00 85 1010.3
20260902073035 60 186 0.0 2.0 0.00 0.00 0.00 83 1010.3
20260902071536 60 218 0.0 3.0 0.00 0.00 0.00 81 1010.4
20260902070029 60 218 0.0 5.0 0.00 0.00 0.00 81 1010.6
20260902064528 59 200 0.0 1.0 0.00 0.00 0.00 81 1010.7
20260902063031 59 200 0.0 0.0 0.00 0.00 0.00 81 1010.7
20260902061541 59 200 0.0 0.0 0.00 0.00 0.00 81 1010.6
20260902060027 59 200 0.0 0.0 0.00 0.00 0.00 82 1010.6
20260902054532 59 200 0.0 0.0 0.00 0.00 0.00 82 1010.7
20260902053029 59 200 0.0 0.0 0.00 0.00 0.00 81 1010.8
20260902051526 60 200 0.0 0.0 0.00 0.00 0.00 80 1010.9
20260902050027 60 200 0.0 0.0 0.00 0.00 0.00 78 1011.0
20260902044526 61 200 0.0 0.0 0.00 0.00 0.00 77 1011.0
20260902043025 61 200 0.0 1.0 0.00 0.00 0.00 76 1011.1
20260902041525 61 200 0.0 0.0 0.00 0.00 0.00 76 1011.1
20260902040025 61 200 0.0 0.0 0.00 0.00 0.00 76 1011.1
20260902034528 61 200 0.0 0.0 0.00 0.00 0.00 76 1011.0
20260902033023 62 200 0.0 0.0 0.00 0.00 0.00 74 1010.9
20260902031523 62 200 0.0 0.0 0.00 0.00 0.00 73 1010.8
20260902030025 63 200 0.0 1.0 0.00 0.00 0.00 72 1010.8
20260902024523 64 200 0.0 0.0 0.00 0.00 0.00 72 1010.9
20260902023021 64 200 0.0 0.0 0.00 0.00 0.00 71 1010.7
20260902021531 64 200 0.0 0.0 0.00 0.00 0.00 70 1010.7
20260902020023 65 202 0.0 3.0 0.00 0.00 0.00 69 1010.7
20260902014521 65 284 0.0 4.0 0.00 0.00 0.00 70 1010.6
20260902013020 65 178 0.0 1.0 0.00 0.00 0.00 71 1010.6
20260902011524 65 178 0.0 7.0 0.00 0.00 0.00 71 1010.5
20260902010021 65 195 0.0 4.0 0.00 0.00 0.00 72 1010.4
20260902004520 65 208 0.0 6.0 0.00 0.00 0.00 74 1010.4
20260902003024 66 184 0.0 4.0 0.00 0.00 0.00 74 1010.4
20260902001518 66 285 0.0 0.0 0.00 0.00 0.00 72 1010.4
20260902000018 65 285 0.0 1.0 0.00 0.00 0.00 73 1010.3
20260901234517 65 320 0.0 6.0 0.00 0.00 0.00 74 1010.5
20260901233018 65 232 0.0 4.0 0.00 0.00 0.00 74 1010.6